TimeCDT,TemperatureF,Dew PointF,Humidity,Sea Level PressureIn,VisibilityMPH,Wind Direction,Wind SpeedMPH,Gust SpeedMPH,PrecipitationIn,Events,Conditions,WindDirDegrees,DateUTC
12:55 AM,44.6,39.2,81,30.14,4.0,SE,9.2,-,N/A,Rain,Heavy Rain,140,2012-10-13 05:55:00
1:35 AM,44.6,41.0,87,30.13,10.0,SSE,9.2,-,N/A,,Overcast,160,2012-10-13 06:35:00
1:55 AM,44.6,41.0,87,30.11,10.0,SE,9.2,-,N/A,,Overcast,140,2012-10-13 06:55:00
2:15 AM,46.4,42.8,87,30.08,10.0,SE,10.4,-,N/A,,Overcast,130,2012-10-13 07:15:00
2:35 AM,46.4,42.8,87,30.07,10.0,SE,8.1,-,N/A,,Overcast,130,2012-10-13 07:35:00
2:55 AM,46.4,42.8,87,30.07,10.0,SSE,5.8,-,N/A,,Overcast,160,2012-10-13 07:55:00
3:15 AM,48.2,44.6,87,30.06,10.0,SSE,6.9,-,N/A,,Overcast,150,2012-10-13 08:15:00
3:35 AM,48.2,44.6,87,30.04,10.0,SE,8.1,-,N/A,,Overcast,140,2012-10-13 08:35:00
3:55 AM,48.2,44.6,87,30.04,10.0,SSE,6.9,-,N/A,,Overcast,150,2012-10-13 08:55:00
4:15 AM,48.2,46.4,93,30.03,10.0,SSE,8.1,-,N/A,,Overcast,150,2012-10-13 09:15:00
4:35 AM,50.0,46.4,87,30.03,10.0,SE,9.2,-,N/A,,Overcast,140,2012-10-13 09:35:00
4:55 AM,50.0,46.4,87,30.03,10.0,SSE,10.4,-,N/A,,Overcast,150,2012-10-13 09:55:00
5:15 AM,50.0,46.4,87,30.02,10.0,SSE,9.2,-,N/A,,Overcast,150,2012-10-13 10:15:00
5:35 AM,50.0,46.4,87,30.01,10.0,SE,8.1,-,N/A,,Overcast,140,2012-10-13 10:35:00
5:55 AM,48.2,46.4,93,30.00,10.0,SE,9.2,-,N/A,Rain,Light Rain,140,2012-10-13 10:55:00
6:15 AM,48.2,46.4,93,29.99,10.0,SSE,8.1,-,N/A,,Overcast,150,2012-10-13 11:15:00
6:35 AM,50.0,46.4,87,29.99,10.0,SSE,9.2,-,N/A,,Overcast,150,2012-10-13 11:35:00
6:55 AM,50.0,46.4,87,29.98,10.0,SSE,6.9,-,N/A,,Overcast,150,2012-10-13 11:55:00
7:15 AM,51.8,46.4,82,29.95,10.0,SE,6.9,-,N/A,,Overcast,140,2012-10-13 12:15:00
7:35 AM,51.8,48.2,88,29.93,10.0,SE,9.2,-,N/A,,Overcast,140,2012-10-13 12:35:00
7:55 AM,51.8,48.2,88,29.94,10.0,SSE,11.5,-,N/A,,Light Drizzle,160,2012-10-13 12:55:00
8:15 AM,53.6,50.0,88,29.97,10.0,South,9.2,-,N/A,,Overcast,190,2012-10-13 13:15:00
8:55 AM,53.6,50.0,88,29.98,7.0,South,10.4,-,0.08,Rain,Rain,190,2012-10-13 13:55:00
9:35 AM,53.6,51.8,94,29.93,7.0,SSE,8.1,-,0.23,Rain,Rain,150,2012-10-13 14:35:00
9:55 AM,53.6,51.8,94,29.92,7.0,South,11.5,-,0.29,Rain,Rain,170,2012-10-13 14:55:00
10:15 AM,53.6,51.8,94,29.90,7.0,South,13.8,-,0.03,Rain,Light Rain,170,2012-10-13 15:15:00
10:35 AM,55.4,53.6,94,29.89,7.0,South,13.8,21.9,0.04,Rain,Light Rain,180,2012-10-13 15:35:00
10:55 AM,55.4,53.6,94,29.88,5.0,South,15.0,-,0.05,,Drizzle,190,2012-10-13 15:55:00
11:15 AM,57.2,53.6,88,29.89,7.0,South,11.5,17.3,N/A,Rain,Rain,190,2012-10-13 16:15:00
11:35 AM,57.2,55.4,94,29.88,7.0,South,11.5,-,0.01,,Light Drizzle,190,2012-10-13 16:35:00
11:55 AM,57.2,55.4,94,29.87,7.0,South,10.4,-,0.01,,Overcast,190,2012-10-13 16:55:00
12:15 PM,59.0,55.4,88,29.87,7.0,South,11.5,-,N/A,,Overcast,190,2012-10-13 17:15:00
12:35 PM,59.0,57.2,94,29.85,10.0,SSW,9.2,-,N/A,,Overcast,200,2012-10-13 17:35:00
12:55 PM,60.8,57.2,88,29.83,7.0,South,11.5,18.4,N/A,Rain,Rain,180,2012-10-13 17:55:00
1:15 PM,60.8,57.2,88,29.83,7.0,South,12.7,18.4,N/A,,Drizzle,180,2012-10-13 18:15:00
1:35 PM,60.8,57.2,88,29.81,7.0,South,11.5,-,N/A,,Overcast,180,2012-10-13 18:35:00
1:55 PM,60.8,59.0,94,29.80,4.0,South,11.5,18.4,N/A,,Overcast,180,2012-10-13 18:55:00
2:15 PM,60.8,59.0,94,29.79,4.0,South,13.8,20.7,N/A,,Overcast,190,2012-10-13 19:15:00
2:35 PM,60.8,59.0,94,29.78,3.0,South,15.0,19.6,N/A,,Overcast,190,2012-10-13 19:35:00
2:55 PM,62.6,60.8,94,29.78,4.0,SSW,11.5,19.6,N/A,,Overcast,200,2012-10-13 19:55:00
3:15 PM,62.6,60.8,94,29.78,4.0,SSW,9.2,12.7,N/A,,Overcast,200,2012-10-13 20:15:00
3:35 PM,62.6,60.8,94,29.77,4.0,South,8.1,-,N/A,,Overcast,190,2012-10-13 20:35:00
3:55 PM,62.6,60.8,94,29.76,4.0,South,9.2,-,N/A,,Overcast,180,2012-10-13 20:55:00
4:15 PM,62.6,60.8,94,29.77,3.0,South,10.4,-,N/A,,Overcast,190,2012-10-13 21:15:00
4:35 PM,62.6,60.8,94,29.77,4.0,South,11.5,-,N/A,,Overcast,180,2012-10-13 21:35:00
4:55 PM,64.4,60.8,88,29.76,4.0,South,11.5,-,N/A,,Overcast,180,2012-10-13 21:55:00
5:15 PM,64.4,60.8,88,29.76,4.0,South,8.1,-,N/A,,Overcast,180,2012-10-13 22:15:00
5:35 PM,64.4,62.6,94,29.76,4.0,South,9.2,-,N/A,,Mostly Cloudy,170,2012-10-13 22:35:00
5:55 PM,64.4,62.6,94,29.75,4.0,SSE,8.1,-,N/A,,Overcast,160,2012-10-13 22:55:00
6:15 PM,64.4,62.6,94,29.75,4.0,SSE,5.8,-,N/A,,Mostly Cloudy,160,2012-10-13 23:15:00
6:35 PM,64.4,60.8,88,29.75,4.0,SSE,6.9,-,N/A,,Scattered Clouds,150,2012-10-13 23:35:00
7:35 PM,64.4,62.6,94,29.76,4.0,South,8.1,-,N/A,,Overcast,170,2012-10-14 00:35:00
7:55 PM,64.4,62.6,94,29.75,2.5,South,6.9,-,N/A,Rain,Light Rain,170,2012-10-14 00:55:00
9:15 PM,64.4,62.6,94,29.74,4.0,South,5.8,-,N/A,,Overcast,170,2012-10-14 02:15:00
9:35 PM,66.2,62.6,88,29.73,5.0,South,6.9,-,N/A,,Overcast,170,2012-10-14 02:35:00
9:55 PM,66.2,64.4,94,29.74,5.0,South,8.1,-,N/A,,Overcast,190,2012-10-14 02:55:00
10:15 PM,66.2,64.4,94,29.74,5.0,South,6.9,-,N/A,,Overcast,180,2012-10-14 03:15:00
10:55 PM,66.2,62.6,88,29.73,7.0,SSE,4.6,-,N/A,,Overcast,150,2012-10-14 03:55:00
11:35 PM,64.4,62.6,94,29.71,7.0,SSE,5.8,-,N/A,,Overcast,150,2012-10-14 04:35:00